Location: *
(51.0333°S, 178.4667°E)
Time: 08:09:06
(UTC+00:00)

STARLINK-39 - Pass Details

Date: 15 November 2019
Orbit: 529 x 530 km, 53.0° (Epoch: 12 December)

Event Time Altitude Azimuth Distance (km) Brightness Sun altitude
Rises 08:09:33 0° 287° (WNW) 2,673 7.7 -5.4°
Reaches altitude 10° 08:11:45 10° 286° (WNW) 1,787 6.8 -5.7°
Maximum altitude 08:15:49 85° 196° (SSW) 544 3.7 -6.2°
Drops below altitude 10° 08:19:55 10° 107° (ESE) 1,798 5.9 -6.6°
Sets 08:22:09 0° 106° (ESE) 2,691 6.8 -6.9°
